Regional Weather Roundup
Issued by NWS Little Rock, AR

Home | Current Version | Previous Version | Graphics & Text | Print | Product List | Glossary On
Versions: 1 2 3 4 5 6 7 8 9 10 11 12 13 14 15 16 17 18 19 20 21 22 23 24 25 26 27 28 29 30 31 32 33 34 35 36 37 38 39 40 41 42 43 44 45 46 47 48
000
ASUS44 KLZK 030105
RWRLZK

WEATHER ROUNDUP FOR ARKANSAS
NATIONAL WEATHER SERVICE LITTLE ROCK AR
700 PM CST MON MAR 02 2015

NOTE: "FAIR" INDICATES FEW OR NO CLOUDS BELOW 12,000 FEET WITH NO
SIGNIFICANT WEATHER AND/OR OBSTRUCTIONS TO VISIBILITY.

ARZ001-003-010-029-030200-
NORTHWEST ARKANSAS

CITY           SKY/WX    TMP DP  RH WIND       PRES   REMARKS
FAYETTEVILLE   CLOUDY    36  33  89 S3        30.22S
FORT SMITH     CLOUDY    38  31  76 E8        30.24F
HARRISON       CLOUDY    34  25  69 SE8       30.24S WCI  27
BENTONVILLE    CLOUDY    36  27  69 SE8       30.21F
ROGERS         CLOUDY    35  29  78 SE9       30.21F WCI  28
SILOAM SPGS    CLOUDY    36  30  80 SE7       30.21F
HIGHFILL       CLOUDY    36  28  73 SE8       30.20F
$$

ARZ004-005-016-030200-
NORTH CENTRAL ARKANSAS

CITY           SKY/WX    TMP DP  RH WIND       PRES   REMARKS
BATESVILLE     CLOUDY    36  21  55 E8        30.31R
FLIPPIN        CLOUDY    37  18  44 E3        30.27R
MTN HOME       CLOUDY    35  21  56 SE3       30.26R
$$

ARZ040-041-030200-
WEST CENTRAL ARKANSAS

CITY           SKY/WX    TMP DP  RH WIND       PRES   REMARKS
MENA           CLOUDY    37  36  93 E5        30.23S
MOUNT IDA      CLOUDY    36  34  92 VRB3      30.22F FOG
$$

ARZ009-017-025-026-028-030200-
NORTHEAST ARKANSAS

CITY           SKY/WX    TMP DP  RH WIND       PRES   REMARKS
CORNING        CLOUDY    36  25  64 NE6       30.32F
JONESBORO      CLOUDY    33  26  75 NE9       30.31F WCI  25
NEWPORT        CLOUDY    34  29  82 NE9       30.31F WCI  27
WALNUT RIDGE   CLOUDY    34  23  64 NE9       30.31S WCI  26
BLYTHEVILLE    CLOUDY    36  28  73 NE7       30.30F
$$

ARZ022-023-033-042-044-030200-
CENTRAL ARKANSAS

CITY           SKY/WX    TMP DP  RH WIND       PRES   REMARKS
LITTLE ROCK    CLOUDY    36  30  79 E6        30.32R
N LITTLE ROCK  CLOUDY    35  33  91 E7        30.32R WCI  29
JACKSONVILLE   CLOUDY    36  30  78 E10       30.30R
SEARCY         CLOUDY    35  29  78 NE8       30.33R WCI  29
HOT SPRINGS    CLOUDY    37  32  82 E7        30.27F
RUSSELLVILLE   CLOUDY    39  28  64 SE5       30.28R
CLINTON        CLOUDY    37  23  56 E5        30.31R
$$

ARZ036-030200-
EAST ARKANSAS

CITY           SKY/WX    TMP DP  RH WIND       PRES   REMARKS
WEST MEMPHIS   CLOUDY    38  33  82 NE7       30.28F
$$

ARZ050-053-066-070-073-030200-
SOUTHWEST ARKANSAS

CITY           SKY/WX    TMP DP  RH WIND       PRES   REMARKS
ARKADELPHIA    CLOUDY    37  37 100 E6        30.29F FOG
CAMDEN         LGT RAIN  36  32  87 MISG      30.30R
TEXARKANA      CLOUDY    37  36  96 E6        30.25S FOG
EL DORADO      CLOUDY    37  36  96 NE7       30.27F FOG
DE QUEEN       CLOUDY    38  37  97 E6        30.25R FOG
$$

ARZ056-057-069-030200-
SOUTHEAST ARKANSAS

CITY           SKY/WX    TMP DP  RH WIND       PRES   REMARKS
PINE BLUFF     CLOUDY    35  35 100 NE6       30.30S WCI  30
STUTTGART      CLOUDY    37  30  75 E9        30.30R
MONTICELLO     FOG       37  35  92 NE7       30.28F VSB 1

$$





USA.gov is the U.S. government's official web portal to all federal, state and local government web resources and services.